Weather History for Valparaiso, FL

Change the Weather History Date:

Thursday, September 6, 2012

  Actual Average Record
Temperature  
Mean Temperature 82 °F -  
Max Temperature 87 °F 87 °F 96 °F (1979)
Min Temperature 77 °F 68 °F 59 °F (2011)
Cooling Degree Days 17    
Growing Degree Days 32 (Base 50)    
Moisture  
Dew Point 75 °F    
Average Humidity 81    
Maximum Humidity 94    
Minimum Humidity 67    
Precipitation  
Precipitation 0.08 in - - ()
Sea Level Pressure  
Sea Level Pressure 29.94 in    
Wind  
Wind Speed 8 mph (SE)    
Max Wind Speed 12 mph    
Max Gust Speed -    
Visibility 10 miles    
Events Rain    
Averages and records for this station are not official NWS values.
T = Trace of Precipitation, MM = Missing Value Source: NWS Daily Summary

Daily Weather History Graph

Daily Weather History Graph

Search for Another Location

Airport:

Trip Planner

Search our weather history database for the weather conditions in past years. The results will help you decide how hot, cold, wet, or windy it might be!

Date:

Astronomy

Sep. 06, 2012 Rise Set
Actual Time 6:25 AM CDT 7:02 PM CDT
Civil Twilight 6:01 AM CDT 7:26 PM CDT
Nautical Twilight 5:32 AM CDT 7:54 PM CDT
Astronomical Twilight 5:03 AM CDT 8:24 PM CDT
Moon 10:41 PM CDT (9/6) 11:56 AM CDT (9/6)
Length of Visible Light 13h 25m
Length of Day
12h 36m
Waning Gibbous, 67% of the Moon is Illuminated
Sep 6
Waning Gibbous
Sep 8
Last Quarter
Sep 15
New
Sep 22
First Quarter
Sep 29
Full

Hourly Weather History & Observations

Time (CDT) Temp. Heat Index Dew Point Humidity Pressure Visibility Wind Dir Wind Speed Gust Speed Precip Events Conditions
12:55 AM 78.8 °F - 74.3 °F 86% 29.90 in 10.0 mi SSE 8.1 mph - N/A   Scattered Clouds
1:59 AM 78.6 °F - 74.1 °F 86% 29.89 in 10.0 mi SSE 10.4 mph - N/A   Scattered Clouds
2:55 AM 79.2 °F - 73.8 °F 83% 29.90 in 10.0 mi SSE 9.2 mph - N/A   Scattered Clouds
3:55 AM 79.3 °F - 73.4 °F 82% 29.89 in 10.0 mi SSE 9.2 mph - N/A   Scattered Clouds
4:55 AM 79.2 °F - 73.6 °F 83% 29.90 in 10.0 mi SSE 6.9 mph - N/A   Mostly Cloudy
5:55 AM 78.3 °F - 73.2 °F 84% 29.92 in 10.0 mi SSE 4.6 mph - N/A   Scattered Clouds
6:55 AM 78.8 °F - 73.9 °F 85% 29.94 in 10.0 mi ESE 3.5 mph - N/A   Mostly Cloudy
7:34 AM 78.8 °F - 73.4 °F 83% 29.95 in 10.0 mi NNE 5.8 mph - N/A   Mostly Cloudy
7:55 AM 77.7 °F - 73.4 °F 86% 29.95 in 10.0 mi ESE 5.8 mph - N/A   Mostly Cloudy
8:01 AM 78.8 °F - 73.4 °F 83% 29.94 in 7.0 mi SE 10.4 mph - N/A Rain Light Rain
8:23 AM 77.0 °F - 73.4 °F 89% 29.94 in 6.0 mi SE 8.1 mph - N/A Rain Light Rain
8:30 AM 77.0 °F - 75.2 °F 94% 29.94 in 7.0 mi SE 9.2 mph - N/A   Mostly Cloudy
8:55 AM 77.4 °F - 74.5 °F 91% 29.96 in 7.0 mi SE 5.8 mph - 0.08 in Rain Light Rain
9:15 AM 78.8 °F - 75.2 °F 89% 29.96 in 8.0 mi ESE 9.2 mph - N/A   Mostly Cloudy
9:55 AM 81.7 °F 88.3 °F 75.4 °F 81% 29.97 in 10.0 mi ESE 4.6 mph - 0.00 in   Scattered Clouds
10:36 AM 80.6 °F 86.2 °F 75.2 °F 84% 29.97 in 10.0 mi ESE 8.1 mph - N/A   Light Drizzle
10:43 AM 82.4 °F 89.5 °F 75.2 °F 79% 29.97 in 10.0 mi SSE 9.2 mph - N/A   Mostly Cloudy
10:56 AM 82.4 °F 89.5 °F 75.4 °F 79% 29.97 in 10.0 mi South 5.8 mph - 0.00 in   Mostly Cloudy
11:55 AM 84.6 °F 93.2 °F 75.6 °F 74% 29.97 in 10.0 mi SE 9.2 mph - N/A   Mostly Cloudy
12:55 PM 86.5 °F 95.9 °F 75.4 °F 69% 29.96 in 10.0 mi SE 10.4 mph - N/A   Scattered Clouds
1:55 PM 86.4 °F 96.0 °F 75.4 °F 70% 29.96 in 10.0 mi South 10.4 mph - N/A   Scattered Clouds
2:55 PM 87.4 °F 97.2 °F 75.2 °F 67% 29.94 in 10.0 mi SE 10.4 mph - N/A   Scattered Clouds
3:12 PM 86.0 °F 95.1 °F 75.2 °F 70% 29.93 in 10.0 mi SE 9.2 mph - N/A   Scattered Clouds
3:55 PM 85.6 °F 94.2 °F 74.8 °F 70% 29.93 in 10.0 mi SSE 11.5 mph - N/A   Scattered Clouds
4:55 PM 85.6 °F 93.8 °F 74.5 °F 69% 29.91 in 10.0 mi SSE 9.2 mph - N/A   Scattered Clouds
5:55 PM 84.4 °F 91.7 °F 74.1 °F 71% 29.91 in 10.0 mi South 9.2 mph - N/A   Partly Cloudy
6:57 PM 82.2 °F 88.3 °F 74.1 °F 76% 29.91 in 10.0 mi SSE 4.6 mph - N/A   Scattered Clouds
7:55 PM 80.2 °F 85.5 °F 75.4 °F 85% 29.92 in 10.0 mi SSE 5.8 mph - N/A   Partly Cloudy
8:58 PM 79.9 °F - 75.2 °F 86% 29.93 in 10.0 mi SSE 6.9 mph - N/A   Partly Cloudy
9:57 PM 79.5 °F - 74.7 °F 85% 29.94 in 10.0 mi SSE 4.6 mph - N/A   Partly Cloudy
10:57 PM 79.2 °F - 74.7 °F 86% 29.94 in 10.0 mi South 3.5 mph - N/A   Partly Cloudy
11:55 PM 78.8 °F - 74.5 °F 87% 29.94 in 9.0 mi Calm Calm - N/A   Partly Cloudy